sat.trackr.live / text

‹ back to catalog

WGS F7 (USA 263)

NORAD 40746 · 2015-036A

PAYLOAD ACTIVE UNKNOWN

§ Identity

Operator
Country
US
Launch date
2015-07-24
Launch site
AFETR
Launch vehicle
Mass (kg)
RCS (m²)
7.25

Purposes: comms

External: N2YO · Heavens-Above · Gunter

§ Orbital elements

Epoch: 2026-05-25T02:51:50.373792Z

Period
1,436.10 min
Inclination
0.0095°
Eccentricity
0.0000356
Mean motion
1.00271627 rev/d
Perigee alt
35,785.1 km
Apogee alt
35,788.1 km
Semi-major
42,164.8 km
B*
0.0000e+0
RAAN
72.2227°
Arg perigee
71.2209°
Mean anomaly
317.2353°
Rev number
3,964

§ Raw data

WGS F7 (USA 263)1 40746U 15036A   26145.11933303  .00000015  00000+0  00000+0 0  99912 40746   0.0095  72.2227 0000356  71.2209 317.2353  1.00271627 39646

JSON: /api/v1/satellites/40746 · /tle

For live sub-satellite position, see the globe view (requires WebGL).

§ Visibility from observer

Set your observer location to see the next 7 days of passes ≥ 10°. The values pass through the URL so the page stays shareable.

No JS? Fill the form by hand. The geolocation button needs JavaScript.